Time,TemperatureF,DewpointF,PressureIn,WindDirection,WindDirectionDegrees,WindSpeedMPH,WindSpeedGustMPH,Humidity,HourlyPrecipIn,Conditions,Clouds,dailyrainin,SoftwareType,DateUTC
2013-08-21 00:01:00,81.4,59.1,27.38,SE,135,0.0,0.0,47,0.00,,,0.00,WUHU216HW,2013-08-21 07:01:00,
2013-08-21 00:02:00,81.4,59.1,27.38,SE,135,0.4,0.4,47,0.00,,,0.00,WUHU216HW,2013-08-21 07:02:00,
2013-08-21 00:06:00,81.4,59.1,27.38,SE,135,0.4,0.4,47,0.00,,,0.00,WUHU216HW,2013-08-21 07:06:00,
2013-08-21 00:11:00,81.4,59.1,27.38,SE,135,0.4,0.4,47,0.00,,,0.00,WUHU216HW,2013-08-21 07:11:00,
2013-08-21 00:32:00,80.6,59.7,27.37,ESE,113,0.0,0.0,49,0.00,,,0.00,WUHU216HW,2013-08-21 07:32:00,
2013-08-21 00:37:00,80.6,59.7,27.37,ESE,113,0.0,0.0,49,0.00,,,0.00,WUHU216HW,2013-08-21 07:37:00,
2013-08-21 00:42:00,80.5,59.5,27.37,East,90,0.0,0.0,49,0.00,,,0.00,WUHU216HW,2013-08-21 07:42:00,
2013-08-21 00:47:00,80.3,59.4,27.37,East,90,0.0,0.0,49,0.00,,,0.00,WUHU216HW,2013-08-21 07:47:00,
2013-08-21 00:52:00,80.3,59.4,27.37,East,90,0.0,0.0,49,0.00,,,0.00,WUHU216HW,2013-08-21 07:52:00,
2013-08-21 00:57:00,80.3,59.4,27.37,East,90,0.0,0.0,49,0.00,,,0.00,WUHU216HW,2013-08-21 07:57:00,
2013-08-21 01:02:00,80.1,59.9,27.37,East,90,0.0,0.0,50,0.00,,,0.00,WUHU216HW,2013-08-21 08:02:00,
2013-08-21 01:07:00,79.9,59.7,27.37,East,90,0.0,0.0,50,0.00,,,0.00,WUHU216HW,2013-08-21 08:07:00,
2013-08-21 01:12:00,79.9,60.2,27.36,ENE,68,1.1,1.1,51,0.00,,,0.00,WUHU216HW,2013-08-21 08:12:00,
2013-08-21 01:17:00,79.6,59.3,27.36,SE,135,1.3,1.3,50,0.00,,,0.00,WUHU216HW,2013-08-21 08:17:00,
2013-08-21 01:22:00,79.6,58.7,27.36,ESE,113,1.3,1.8,49,0.00,,,0.00,WUHU216HW,2013-08-21 08:22:00,
2013-08-21 01:27:00,79.9,59.0,27.36,North,0,0.2,1.8,49,0.00,,,0.00,WUHU216HW,2013-08-21 08:27:00,
2013-08-21 01:32:00,80.1,58.6,27.35,ENE,68,0.2,1.3,48,0.00,,,0.00,WUHU216HW,2013-08-21 08:32:00,
2013-08-21 01:37:00,80.1,58.6,27.35,SSW,203,1.1,2.5,48,0.00,,,0.00,WUHU216HW,2013-08-21 08:37:00,
2013-08-21 01:42:00,80.1,58.6,27.35,SE,135,0.4,2.5,48,0.00,,,0.00,WUHU216HW,2013-08-21 08:42:00,
2013-08-21 02:00:00,79.9,59.7,27.35,NW,315,0.2,0.2,50,0.00,,,0.00,WUHU216HW,2013-08-21 09:00:00,
2013-08-21 02:05:00,79.7,59.5,27.35,North,0,0.4,0.9,50,0.00,,,0.00,WUHU216HW,2013-08-21 09:05:00,
2013-08-21 02:10:00,79.6,59.9,27.35,North,0,0.0,0.9,51,0.00,,,0.00,WUHU216HW,2013-08-21 09:10:00,
2013-08-21 02:15:00,79.6,60.4,27.35,North,0,0.7,0.7,52,0.00,,,0.00,WUHU216HW,2013-08-21 09:15:00,
2013-08-21 02:20:00,79.4,60.2,27.34,North,0,0.0,0.9,52,0.00,,,0.00,WUHU216HW,2013-08-21 09:20:00,
2013-08-21 02:25:00,79.2,60.0,27.34,NW,315,0.0,0.9,52,0.00,,,0.00,WUHU216HW,2013-08-21 09:25:00,
2013-08-21 02:30:00,79.2,60.0,27.34,NW,315,0.0,0.4,52,0.00,,,0.00,WUHU216HW,2013-08-21 09:30:00,
2013-08-21 02:35:00,79.0,60.4,27.34,NW,315,0.0,0.0,53,0.00,,,0.00,WUHU216HW,2013-08-21 09:35:00,
2013-08-21 02:40:00,79.0,60.4,27.34,NNE,23,0.4,0.4,53,0.00,,,0.00,WUHU216HW,2013-08-21 09:40:00,
2013-08-21 02:45:00,79.0,60.4,27.34,North,0,0.0,0.4,53,0.00,,,0.00,WUHU216HW,2013-08-21 09:45:00,
2013-08-21 02:50:00,79.0,60.9,27.34,NNW,338,0.0,0.4,54,0.00,,,0.00,WUHU216HW,2013-08-21 09:50:00,
2013-08-21 02:55:00,78.8,60.8,27.34,NNW,338,0.4,0.7,54,0.00,,,0.00,WUHU216HW,2013-08-21 09:55:00,
2013-08-21 03:00:00,78.8,60.8,27.34,NW,315,0.0,0.7,54,0.00,,,0.00,WUHU216HW,2013-08-21 10:00:00,
2013-08-21 03:05:00,78.7,60.6,27.34,NW,315,0.0,0.0,54,0.00,,,0.00,WUHU216HW,2013-08-21 10:05:00,
2013-08-21 03:10:00,78.7,60.6,27.34,NW,315,0.0,0.0,54,0.00,,,0.00,WUHU216HW,2013-08-21 10:10:00,
2013-08-21 03:15:00,78.8,60.8,27.34,NW,315,0.0,0.0,54,0.00,,,0.00,WUHU216HW,2013-08-21 10:15:00,
2013-08-21 03:20:00,78.8,60.8,27.34,NW,315,0.0,0.0,54,0.00,,,0.00,WUHU216HW,2013-08-21 10:20:00,
2013-08-21 03:25:00,78.8,60.8,27.33,NW,315,0.0,0.0,54,0.00,,,0.00,WUHU216HW,2013-08-21 10:25:00,
2013-08-21 03:30:00,78.7,61.1,27.34,NW,315,0.0,0.0,55,0.00,,,0.00,WUHU216HW,2013-08-21 10:30:00,
2013-08-21 03:35:00,78.7,61.1,27.34,NW,315,0.0,0.0,55,0.00,,,0.00,WUHU216HW,2013-08-21 10:35:00,
2013-08-21 03:40:00,78.5,60.9,27.34,NW,315,0.0,0.0,55,0.00,,,0.00,WUHU216HW,2013-08-21 10:40:00,
2013-08-21 03:45:00,78.5,61.5,27.34,NW,315,0.0,0.0,56,0.00,,,0.00,WUHU216HW,2013-08-21 10:45:00,
2013-08-21 03:50:00,78.5,61.5,27.34,NW,315,0.0,0.0,56,0.00,,,0.00,WUHU216HW,2013-08-21 10:50:00,
2013-08-21 03:55:00,78.3,61.8,27.34,NW,315,0.0,0.0,57,0.00,,,0.00,WUHU216HW,2013-08-21 10:55:00,
2013-08-21 04:00:00,78.3,61.3,27.34,NW,315,0.0,0.0,56,0.00,,,0.00,WUHU216HW,2013-08-21 11:00:00,
2013-08-21 04:05:00,78.1,61.1,27.35,NW,315,0.0,0.0,56,0.00,,,0.00,WUHU216HW,2013-08-21 11:05:00,
2013-08-21 04:10:00,78.1,61.7,27.34,NW,315,0.0,0.0,57,0.00,,,0.00,WUHU216HW,2013-08-21 11:10:00,
2013-08-21 04:15:00,78.1,61.7,27.34,NW,315,0.0,0.0,57,0.00,,,0.00,WUHU216HW,2013-08-21 11:15:00,
2013-08-21 04:20:00,78.1,61.7,27.34,North,0,0.7,0.7,57,0.00,,,0.00,WUHU216HW,2013-08-21 11:20:00,
2013-08-21 04:25:00,78.1,61.7,27.35,North,0,0.2,0.7,57,0.00,,,0.00,WUHU216HW,2013-08-21 11:25:00,
2013-08-21 04:30:00,78.1,61.7,27.34,North,0,0.0,0.4,57,0.00,,,0.00,WUHU216HW,2013-08-21 11:30:00,
2013-08-21 04:35:00,78.1,61.7,27.34,North,0,0.0,0.0,57,0.00,,,0.00,WUHU216HW,2013-08-21 11:35:00,
2013-08-21 04:40:00,78.1,61.7,27.34,North,0,0.0,0.0,57,0.00,,,0.00,WUHU216HW,2013-08-21 11:40:00,
2013-08-21 04:45:00,77.9,61.5,27.34,NNW,338,0.0,0.4,57,0.00,,,0.00,WUHU216HW,2013-08-21 11:45:00,
2013-08-21 04:50:00,77.9,61.5,27.34,NNW,338,0.0,0.4,57,0.00,,,0.00,WUHU216HW,2013-08-21 11:50:00,
2013-08-21 04:55:00,77.8,61.3,27.34,NNW,338,0.0,0.0,57,0.00,,,0.00,WUHU216HW,2013-08-21 11:55:00,
2013-08-21 05:00:00,77.8,61.3,27.34,NNW,338,0.0,0.0,57,0.00,,,0.00,WUHU216HW,2013-08-21 12:00:00,
2013-08-21 05:05:00,77.8,61.3,27.34,NNE,23,0.0,0.4,57,0.00,,,0.00,WUHU216HW,2013-08-21 12:05:00,
2013-08-21 05:10:00,77.6,61.1,27.34,NNE,23,0.0,0.4,57,0.00,,,0.00,WUHU216HW,2013-08-21 12:10:00,
2013-08-21 05:15:00,77.6,61.1,27.34,NNE,23,0.0,0.0,57,0.00,,,0.00,WUHU216HW,2013-08-21 12:15:00,
2013-08-21 05:20:00,77.4,60.9,27.34,North,0,0.0,0.0,57,0.00,,,0.00,WUHU216HW,2013-08-21 12:20:00,
2013-08-21 05:25:00,77.4,61.5,27.34,North,0,0.0,0.0,58,0.00,,,0.00,WUHU216HW,2013-08-21 12:25:00,
2013-08-21 05:30:00,77.0,61.6,27.34,North,0,0.0,0.0,59,0.00,,,0.00,WUHU216HW,2013-08-21 12:30:00,
2013-08-21 05:35:00,77.0,61.6,27.34,NW,315,0.0,0.0,59,0.00,,,0.00,WUHU216HW,2013-08-21 12:35:00,
2013-08-21 05:40:00,76.9,61.5,27.35,SW,225,0.9,0.9,59,0.00,,,0.00,WUHU216HW,2013-08-21 12:40:00,
2013-08-21 05:45:00,76.9,61.5,27.35,SW,225,0.7,0.9,59,0.00,,,0.00,WUHU216HW,2013-08-21 12:45:00,
2013-08-21 05:50:00,76.9,61.9,27.35,WSW,248,0.0,0.7,60,0.00,,,0.00,WUHU216HW,2013-08-21 12:50:00,
2013-08-21 05:55:00,76.9,61.9,27.35,NW,315,0.2,0.4,60,0.00,,,0.00,WUHU216HW,2013-08-21 12:55:00,
2013-08-21 06:00:00,76.7,62.2,27.35,NNW,338,0.0,0.2,61,0.00,,,0.00,WUHU216HW,2013-08-21 13:00:00,
2013-08-21 06:05:00,76.7,62.2,27.36,NW,315,0.0,0.0,61,0.00,,,0.00,WUHU216HW,2013-08-21 13:05:00,
2013-08-21 06:10:00,76.7,62.2,27.36,North,0,0.4,0.4,61,0.00,,,0.00,WUHU216HW,2013-08-21 13:10:00,
2013-08-21 06:15:00,76.7,62.2,27.36,North,0,0.0,0.4,61,0.00,,,0.00,WUHU216HW,2013-08-21 13:15:00,
2013-08-21 06:20:00,76.7,62.2,27.36,North,0,0.0,0.4,61,0.00,,,0.00,WUHU216HW,2013-08-21 13:20:00,
2013-08-21 06:25:00,76.7,62.2,27.36,North,0,0.0,0.4,61,0.00,,,0.00,WUHU216HW,2013-08-21 13:25:00,
2013-08-21 06:30:00,76.7,62.2,27.36,North,0,0.0,0.4,61,0.00,,,0.00,WUHU216HW,2013-08-21 13:30:00,
2013-08-21 06:35:00,76.9,61.9,27.36,North,0,0.0,0.4,60,0.00,,,0.00,WUHU216HW,2013-08-21 13:35:00,
2013-08-21 06:38:00,76.9,61.9,27.37,NNE,23,0.4,0.4,60,0.00,,,0.00,WUHU216HW,2013-08-21 13:38:00,
2013-08-21 06:40:00,76.9,61.9,27.37,NNE,23,0.4,0.7,60,0.00,,,0.00,WUHU216HW,2013-08-21 13:40:00,
2013-08-21 06:45:00,76.9,61.9,27.37,NNE,23,0.4,0.7,60,0.00,,,0.00,WUHU216HW,2013-08-21 13:45:00,
2013-08-21 07:00:00,77.2,62.3,27.37,NNE,23,0.0,0.0,60,0.00,,,0.00,WUHU216HW,2013-08-21 14:00:00,
2013-08-21 07:05:00,77.2,62.3,27.37,NNE,23,0.0,0.0,60,0.00,,,0.00,WUHU216HW,2013-08-21 14:05:00,
2013-08-21 07:10:00,77.4,62.5,27.37,SSW,203,0.0,0.0,60,0.00,,,0.00,WUHU216HW,2013-08-21 14:10:00,
2013-08-21 07:15:00,77.4,61.9,27.37,SSW,203,0.0,0.4,59,0.00,,,0.00,WUHU216HW,2013-08-21 14:15:00,
2013-08-21 07:20:00,77.6,62.1,27.38,SW,225,0.4,0.4,59,0.00,,,0.00,WUHU216HW,2013-08-21 14:20:00,
2013-08-21 07:25:00,77.6,62.6,27.38,WSW,248,0.0,0.7,60,0.00,,,0.00,WUHU216HW,2013-08-21 14:25:00,
2013-08-21 07:30:00,77.8,62.8,27.38,West,270,0.0,0.7,60,0.00,,,0.00,WUHU216HW,2013-08-21 14:30:00,
2013-08-21 07:35:00,77.8,63.3,27.38,NW,315,0.4,0.9,61,0.00,,,0.00,WUHU216HW,2013-08-21 14:35:00,
2013-08-21 07:40:00,77.8,63.3,27.38,West,270,0.0,0.9,61,0.00,,,0.00,WUHU216HW,2013-08-21 14:40:00,
2013-08-21 07:45:00,77.8,63.3,27.38,SW,225,0.0,1.1,61,0.00,,,0.00,WUHU216HW,2013-08-21 14:45:00,
2013-08-21 07:50:00,77.8,63.3,27.38,West,270,0.0,1.1,61,0.00,,,0.00,WUHU216HW,2013-08-21 14:50:00,
2013-08-21 07:55:00,77.9,63.0,27.39,North,0,0.2,0.4,60,0.00,,,0.00,WUHU216HW,2013-08-21 14:55:00,
2013-08-21 08:00:00,78.1,63.2,27.38,WNW,293,0.0,1.1,60,0.00,,,0.00,WUHU216HW,2013-08-21 15:00:00,
2013-08-21 08:05:00,78.5,63.0,27.39,North,0,0.4,1.1,59,0.00,,,0.00,WUHU216HW,2013-08-21 15:05:00,
2013-08-21 08:10:00,78.5,63.0,27.39,West,270,0.0,0.4,59,0.00,,,0.00,WUHU216HW,2013-08-21 15:10:00,
2013-08-21 08:15:00,78.7,63.2,27.38,West,270,0.0,0.2,59,0.00,,,0.00,WUHU216HW,2013-08-21 15:15:00,
2013-08-21 08:20:00,78.8,63.4,27.39,WSW,248,0.4,0.4,59,0.00,,,0.00,WUHU216HW,2013-08-21 15:20:00,
2013-08-21 08:25:00,79.2,63.2,27.39,SW,225,0.4,0.4,58,0.00,,,0.00,WUHU216HW,2013-08-21 15:25:00,
2013-08-21 08:30:00,79.4,63.4,27.39,SW,225,0.0,0.4,58,0.00,,,0.00,WUHU216HW,2013-08-21 15:30:00,
2013-08-21 08:35:00,79.6,63.6,27.39,SW,225,0.7,0.7,58,0.00,,,0.00,WUHU216HW,2013-08-21 15:35:00,
2013-08-21 08:40:00,79.7,63.2,27.39,SW,225,0.4,0.7,57,0.00,,,0.00,WUHU216HW,2013-08-21 15:40:00,
2013-08-21 08:45:00,79.9,63.3,27.39,SSW,203,0.4,0.9,57,0.00,,,0.00,WUHU216HW,2013-08-21 15:45:00,
2013-08-21 08:50:00,80.1,63.5,27.39,SW,225,0.0,0.9,57,0.00,,,0.00,WUHU216HW,2013-08-21 15:50:00,
2013-08-21 08:55:00,80.3,63.1,27.39,SW,225,0.0,0.9,56,0.00,,,0.00,WUHU216HW,2013-08-21 15:55:00,
2013-08-21 09:00:00,80.3,63.1,27.39,SSW,203,0.4,0.9,56,0.00,,,0.00,WUHU216HW,2013-08-21 16:00:00,
2013-08-21 09:05:00,80.6,63.5,27.39,West,270,0.0,0.9,56,0.00,,,0.00,WUHU216HW,2013-08-21 16:05:00,
2013-08-21 09:10:00,80.6,63.5,27.39,WNW,293,0.0,0.9,56,0.00,,,0.00,WUHU216HW,2013-08-21 16:10:00,
2013-08-21 09:15:00,80.8,63.1,27.40,SW,225,0.0,0.9,55,0.00,,,0.00,WUHU216HW,2013-08-21 16:15:00,
2013-08-21 09:20:00,80.8,62.6,27.40,WSW,248,0.0,0.9,54,0.00,,,0.00,WUHU216HW,2013-08-21 16:20:00,
2013-08-21 09:25:00,81.0,62.7,27.40,West,270,0.0,0.4,54,0.00,,,0.00,WUHU216HW,2013-08-21 16:25:00,
2013-08-21 09:30:00,81.0,62.7,27.40,SW,225,0.0,0.7,54,0.00,,,0.00,WUHU216HW,2013-08-21 16:30:00,
2013-08-21 09:35:00,81.4,63.0,27.40,WSW,248,0.0,0.7,54,0.00,,,0.00,WUHU216HW,2013-08-21 16:35:00,
2013-08-21 09:40:00,81.4,63.0,27.40,SW,225,0.0,0.7,54,0.00,,,0.00,WUHU216HW,2013-08-21 16:40:00,
2013-08-21 09:45:00,81.5,63.2,27.40,SE,135,0.2,0.7,54,0.00,,,0.00,WUHU216HW,2013-08-21 16:45:00,
2013-08-21 09:50:00,81.7,63.4,27.40,SW,225,0.0,0.2,54,0.00,,,0.00,WUHU216HW,2013-08-21 16:50:00,
2013-08-21 09:55:00,81.7,62.8,27.40,SSE,158,0.4,0.9,53,0.00,,,0.00,WUHU216HW,2013-08-21 16:55:00,
2013-08-21 10:00:00,82.1,63.2,27.40,SSE,158,0.0,0.9,53,0.00,,,0.00,WUHU216HW,2013-08-21 17:00:00,
2013-08-21 10:04:00,82.1,63.2,27.40,South,180,0.0,0.0,53,0.00,,,0.00,WUHU216HW,2013-08-21 17:04:00,
2013-08-21 10:05:00,82.1,63.2,27.40,South,180,0.0,0.4,53,0.00,,,0.00,WUHU216HW,2013-08-21 17:05:00,
2013-08-21 10:10:00,82.1,63.2,27.40,South,180,0.0,0.0,53,0.00,,,0.00,WUHU216HW,2013-08-21 17:10:00,
2013-08-21 10:34:00,83.5,62.4,27.40,SW,225,0.0,0.0,49,0.00,,,0.00,WUHU216HW,2013-08-21 17:34:00,
2013-08-21 10:39:00,83.9,62.1,27.40,SSW,203,0.0,0.9,48,0.00,,,0.00,WUHU216HW,2013-08-21 17:39:00,
2013-08-21 10:44:00,83.9,62.1,27.40,SW,225,0.2,0.9,48,0.00,,,0.00,WUHU216HW,2013-08-21 17:44:00,
2013-08-21 10:49:00,84.1,62.3,27.40,SW,225,0.4,0.9,48,0.00,,,0.00,WUHU216HW,2013-08-21 17:49:00,
2013-08-21 10:54:00,84.2,62.5,27.40,SW,225,0.0,1.1,48,0.00,,,0.00,WUHU216HW,2013-08-21 17:54:00,
2013-08-21 10:59:00,84.4,62.0,27.40,WSW,248,0.0,1.1,47,0.00,,,0.00,WUHU216HW,2013-08-21 17:59:00,
2013-08-21 11:04:00,84.4,61.4,27.40,SSW,203,0.0,1.1,46,0.00,,,0.00,WUHU216HW,2013-08-21 18:04:00,
2013-08-21 11:09:00,84.6,61.6,27.40,SSW,203,1.1,1.1,46,0.00,,,0.00,WUHU216HW,2013-08-21 18:09:00,
2013-08-21 11:14:00,84.8,61.7,27.40,SW,225,0.4,1.3,46,0.00,,,0.00,WUHU216HW,2013-08-21 18:14:00,
2013-08-21 11:19:00,84.8,61.7,27.40,West,270,0.0,1.3,46,0.00,,,0.00,WUHU216HW,2013-08-21 18:19:00,
2013-08-21 11:24:00,85.0,61.8,27.40,NE,45,0.4,1.1,46,0.00,,,0.00,WUHU216HW,2013-08-21 18:24:00,
2013-08-21 11:29:00,85.0,61.8,27.40,West,270,0.9,0.9,46,0.00,,,0.00,WUHU216HW,2013-08-21 18:29:00,
2013-08-21 11:34:00,85.1,62.0,27.40,SW,225,0.0,0.9,46,0.00,,,0.00,WUHU216HW,2013-08-21 18:34:00,
2013-08-21 11:39:00,85.3,62.8,27.40,NW,315,0.0,0.7,47,0.00,,,0.00,WUHU216HW,2013-08-21 18:39:00,
2013-08-21 11:44:00,85.3,62.8,27.40,WNW,293,0.2,0.7,47,0.00,,,0.00,WUHU216HW,2013-08-21 18:44:00,
2013-08-21 12:00:00,86.0,62.2,27.39,NW,315,0.0,0.0,45,0.00,,,0.00,WUHU216HW,2013-08-21 19:00:00,
2013-08-21 12:05:00,86.0,62.2,27.39,SW,225,0.0,0.7,45,0.00,,,0.00,WUHU216HW,2013-08-21 19:05:00,
2013-08-21 12:10:00,86.2,62.4,27.39,NW,315,1.1,1.1,45,0.00,,,0.00,WUHU216HW,2013-08-21 19:10:00,
2013-08-21 12:15:00,86.4,61.9,27.39,NW,315,0.4,1.3,44,0.00,,,0.00,WUHU216HW,2013-08-21 19:15:00,
2013-08-21 12:20:00,86.6,61.4,27.39,West,270,0.4,1.3,43,0.00,,,0.00,WUHU216HW,2013-08-21 19:20:00,
2013-08-21 12:25:00,86.6,61.4,27.39,WSW,248,0.4,1.1,43,0.00,,,0.00,WUHU216HW,2013-08-21 19:25:00,
2013-08-21 12:30:00,86.8,61.6,27.39,ENE,68,0.9,0.9,43,0.00,,,0.00,WUHU216HW,2013-08-21 19:30:00,
2013-08-21 12:35:00,86.9,61.7,27.38,NE,45,1.6,1.6,43,0.00,,,0.00,WUHU216HW,2013-08-21 19:35:00,
2013-08-21 12:40:00,87.1,61.9,27.38,ENE,68,0.4,1.6,43,0.00,,,0.00,WUHU216HW,2013-08-21 19:40:00,
2013-08-21 12:45:00,87.1,61.3,27.38,North,0,1.1,1.1,42,0.00,,,0.00,WUHU216HW,2013-08-21 19:45:00,
2013-08-21 12:50:00,87.5,60.9,27.38,SW,225,1.1,1.1,41,0.00,,,0.00,WUHU216HW,2013-08-21 19:50:00,
2013-08-21 12:55:00,87.7,61.7,27.38,SW,225,0.2,1.1,42,0.00,,,0.00,WUHU216HW,2013-08-21 19:55:00,
2013-08-21 13:00:00,88.0,62.1,27.38,West,270,1.6,1.6,42,0.00,,,0.00,WUHU216HW,2013-08-21 20:00:00,
2013-08-21 13:05:00,88.6,61.8,27.38,SW,225,1.8,1.8,41,0.00,,,0.00,WUHU216HW,2013-08-21 20:05:00,
2013-08-21 13:10:00,88.7,62.0,27.38,SSW,203,0.4,2.2,41,0.00,,,0.00,WUHU216HW,2013-08-21 20:10:00,
2013-08-21 13:15:00,88.9,61.6,27.38,West,270,1.6,2.2,40,0.00,,,0.00,WUHU216HW,2013-08-21 20:15:00,
2013-08-21 13:20:00,89.5,61.9,27.37,SW,225,2.5,2.5,40,0.00,,,0.00,WUHU216HW,2013-08-21 20:20:00,
2013-08-21 13:25:00,89.6,62.1,27.37,WSW,248,1.3,3.8,40,0.00,,,0.00,WUHU216HW,2013-08-21 20:25:00,
2013-08-21 13:30:00,89.8,62.3,27.37,West,270,0.4,3.8,40,0.00,,,0.00,WUHU216HW,2013-08-21 20:30:00,
2013-08-21 13:35:00,90.0,62.5,27.37,SSW,203,1.8,1.8,40,0.00,,,0.00,WUHU216HW,2013-08-21 20:35:00,
2013-08-21 13:40:00,90.2,61.8,27.36,West,270,0.4,1.8,39,0.00,,,0.00,WUHU216HW,2013-08-21 20:40:00,
2013-08-21 13:45:00,90.4,61.9,27.36,SW,225,0.0,1.3,39,0.00,,,0.00,WUHU216HW,2013-08-21 20:45:00,
2013-08-21 13:50:00,90.9,62.5,27.36,WSW,248,1.3,2.0,39,0.00,,,0.00,WUHU216HW,2013-08-21 20:50:00,
2013-08-21 13:55:00,91.4,62.1,27.36,SSW,203,1.8,2.0,38,0.00,,,0.00,WUHU216HW,2013-08-21 20:55:00,
2013-08-21 14:00:00,92.0,61.0,27.36,WSW,248,1.6,2.2,36,0.00,,,0.00,WUHU216HW,2013-08-21 21:00:00,
2013-08-21 14:05:00,92.3,60.5,27.35,NNW,338,1.1,2.5,35,0.00,,,0.00,WUHU216HW,2013-08-21 21:05:00,
2013-08-21 14:10:00,92.5,59.9,27.35,NW,315,0.9,2.5,34,0.00,,,0.00,WUHU216HW,2013-08-21 21:10:00,
2013-08-21 14:15:00,92.7,60.0,27.35,WSW,248,1.3,2.9,34,0.00,,,0.00,WUHU216HW,2013-08-21 21:15:00,
2013-08-21 14:20:00,92.9,60.2,27.35,SW,225,0.4,2.9,34,0.00,,,0.00,WUHU216HW,2013-08-21 21:20:00,
2013-08-21 14:25:00,93.4,60.7,27.34,SW,225,1.6,2.7,34,0.00,,,0.00,WUHU216HW,2013-08-21 21:25:00,
2013-08-21 14:30:00,93.8,59.3,27.34,WSW,248,1.6,2.5,32,0.00,,,0.00,WUHU216HW,2013-08-21 21:30:00,
2013-08-21 14:35:00,94.5,59.2,27.34,WSW,248,1.8,2.5,31,0.00,,,0.00,WUHU216HW,2013-08-21 21:35:00,
2013-08-21 14:40:00,94.7,59.3,27.34,WSW,248,1.8,1.8,31,0.00,,,0.00,WUHU216HW,2013-08-21 21:40:00,
2013-08-21 14:45:00,94.7,58.5,27.33,WNW,293,0.9,2.0,30,0.00,,,0.00,WUHU216HW,2013-08-21 21:45:00,
2013-08-21 14:50:00,94.5,58.4,27.33,West,270,2.0,2.2,30,0.00,,,0.00,WUHU216HW,2013-08-21 21:50:00,
2013-08-21 14:55:00,94.7,58.5,27.33,WNW,293,1.1,2.2,30,0.00,,,0.00,WUHU216HW,2013-08-21 21:55:00,
2013-08-21 15:00:00,95.0,58.9,27.32,WSW,248,0.4,2.2,30,0.00,,,0.00,WUHU216HW,2013-08-21 22:00:00,
2013-08-21 15:05:00,95.6,59.3,27.32,WSW,248,1.8,3.4,30,0.00,,,0.00,WUHU216HW,2013-08-21 22:05:00,
2013-08-21 15:10:00,96.1,58.6,27.32,WSW,248,0.9,3.6,29,0.00,,,0.00,WUHU216HW,2013-08-21 22:10:00,
2013-08-21 15:15:00,96.5,59.0,27.31,WSW,248,3.8,3.8,29,0.00,,,0.00,WUHU216HW,2013-08-21 22:15:00,
2013-08-21 15:20:00,96.5,59.0,27.31,WSW,248,2.2,3.8,29,0.00,,,0.00,WUHU216HW,2013-08-21 22:20:00,
2013-08-21 15:25:00,96.7,56.9,27.31,WNW,293,2.9,4.7,27,0.00,,,0.00,WUHU216HW,2013-08-21 22:25:00,
2013-08-21 15:30:00,96.8,57.0,27.31,WSW,248,3.6,4.7,27,0.00,,,0.00,WUHU216HW,2013-08-21 22:30:00,
2013-08-21 15:35:00,97.0,57.2,27.31,WSW,248,1.3,3.6,27,0.00,,,0.00,WUHU216HW,2013-08-21 22:35:00,
2013-08-21 15:40:00,96.8,57.0,27.31,SSW,203,1.8,3.6,27,0.00,,,0.00,WUHU216HW,2013-08-21 22:40:00,
2013-08-21 15:45:00,97.0,59.4,27.30,SSE,158,1.6,3.6,29,0.00,,,0.00,WUHU216HW,2013-08-21 22:45:00,
2013-08-21 15:50:00,97.2,57.3,27.30,West,270,3.8,3.8,27,0.00,,,0.00,WUHU216HW,2013-08-21 22:50:00,
2013-08-21 15:55:00,97.0,56.1,27.30,West,270,2.7,3.8,26,0.00,,,0.00,WUHU216HW,2013-08-21 22:55:00,
2013-08-21 16:00:00,96.8,57.0,27.30,WSW,248,1.3,3.6,27,0.00,,,0.00,WUHU216HW,2013-08-21 23:00:00,
2013-08-21 16:05:00,97.2,57.3,27.30,WSW,248,2.2,4.0,27,0.00,,,0.00,WUHU216HW,2013-08-21 23:05:00,
2013-08-21 16:10:00,97.4,57.5,27.30,West,270,3.1,4.0,27,0.00,,,0.00,WUHU216HW,2013-08-21 23:10:00,
2013-08-21 16:15:00,97.6,57.6,27.29,SW,225,3.8,3.8,27,0.00,,,0.00,WUHU216HW,2013-08-21 23:15:00,
2013-08-21 16:20:00,97.6,56.5,27.29,SW,225,2.5,3.8,26,0.00,,,0.00,WUHU216HW,2013-08-21 23:20:00,
2013-08-21 16:25:00,97.6,56.5,27.30,SSW,203,2.9,3.6,26,0.00,,,0.00,WUHU216HW,2013-08-21 23:25:00,
2013-08-21 16:30:00,97.6,56.5,27.29,WSW,248,3.4,4.5,26,0.00,,,0.00,WUHU216HW,2013-08-21 23:30:00,
2013-08-21 16:35:00,97.6,56.5,27.30,SW,225,2.7,4.5,26,0.00,,,0.00,WUHU216HW,2013-08-21 23:35:00,
2013-08-21 16:40:00,97.6,56.5,27.29,WNW,293,2.9,5.1,26,0.00,,,0.00,WUHU216HW,2013-08-21 23:40:00,
2013-08-21 16:45:00,97.4,56.3,27.29,West,270,2.2,5.1,26,0.00,,,0.00,WUHU216HW,2013-08-21 23:45:00,
2013-08-21 16:50:00,97.4,56.3,27.29,WSW,248,1.3,3.8,26,0.00,,,0.00,WUHU216HW,2013-08-21 23:50:00,
2013-08-21 16:55:00,97.4,56.3,27.29,SW,225,3.4,3.4,26,0.00,,,0.00,WUHU216HW,2013-08-21 23:55:00,
2013-08-21 17:00:00,97.2,56.3,27.29,SSW,203,3.1,4.0,26,0.00,,,0.00,WUHU216HW,2013-08-22 00:00:00,
2013-08-21 17:05:00,97.0,56.1,27.29,SSW,203,3.1,4.0,26,0.00,,,0.00,WUHU216HW,2013-08-22 00:05:00,
2013-08-21 17:10:00,97.0,56.1,27.29,WSW,248,2.7,4.7,26,0.00,,,0.00,WUHU216HW,2013-08-22 00:10:00,
2013-08-21 17:15:00,96.8,55.9,27.29,WSW,248,1.8,4.7,26,0.00,,,0.00,WUHU216HW,2013-08-22 00:15:00,
2013-08-21 17:20:00,96.5,55.6,27.29,SW,225,4.0,4.7,26,0.00,,,0.00,WUHU216HW,2013-08-22 00:20:00,
2013-08-21 17:25:00,96.5,55.6,27.29,SW,225,4.7,5.1,26,0.00,,,0.00,WUHU216HW,2013-08-22 00:25:00,
2013-08-21 17:30:00,96.7,55.8,27.29,West,270,2.0,5.1,26,0.00,,,0.00,WUHU216HW,2013-08-22 00:30:00,
2013-08-21 17:35:00,96.8,55.9,27.29,WSW,248,4.9,4.9,26,0.00,,,0.00,WUHU216HW,2013-08-22 00:35:00,
2013-08-21 17:40:00,96.8,55.9,27.28,West,270,2.5,4.9,26,0.00,,,0.00,WUHU216HW,2013-08-22 00:40:00,
2013-08-21 17:45:00,97.0,56.1,27.29,West,270,2.9,6.5,26,0.00,,,0.00,WUHU216HW,2013-08-22 00:45:00,
2013-08-21 17:50:00,96.8,55.9,27.29,WSW,248,4.3,6.5,26,0.00,,,0.00,WUHU216HW,2013-08-22 00:50:00,
2013-08-21 17:55:00,96.5,55.6,27.29,WSW,248,2.5,4.3,26,0.00,,,0.00,WUHU216HW,2013-08-22 00:55:00,
2013-08-21 18:00:00,96.1,55.3,27.29,WNW,293,2.7,3.6,26,0.00,,,0.00,WUHU216HW,2013-08-22 01:00:00,
2013-08-21 18:05:00,95.4,55.8,27.29,South,180,1.6,3.8,27,0.00,,,0.00,WUHU216HW,2013-08-22 01:05:00,
2013-08-21 18:10:00,95.2,55.6,27.29,WSW,248,3.4,4.7,27,0.00,,,0.00,WUHU216HW,2013-08-22 01:10:00,
2013-08-21 18:15:00,95.0,55.5,27.29,WSW,248,2.2,4.7,27,0.00,,,0.00,WUHU216HW,2013-08-22 01:15:00,
2013-08-21 18:20:00,95.0,55.5,27.30,WSW,248,1.6,2.9,27,0.00,,,0.00,WUHU216HW,2013-08-22 01:20:00,
2013-08-21 18:25:00,94.7,55.2,27.30,SW,225,2.7,2.7,27,0.00,,,0.00,WUHU216HW,2013-08-22 01:25:00,
2013-08-21 18:30:00,94.0,54.5,27.30,SW,225,2.5,3.4,27,0.00,,,0.00,WUHU216HW,2013-08-22 01:30:00,
2013-08-21 18:35:00,93.6,56.4,27.30,NNE,23,1.8,3.4,29,0.00,,,0.00,WUHU216HW,2013-08-22 01:35:00,
2013-08-21 18:40:00,93.2,56.2,27.30,SW,225,2.7,4.3,29,0.00,,,0.00,WUHU216HW,2013-08-22 01:40:00,
2013-08-21 18:45:00,92.9,55.9,27.30,West,270,2.5,4.3,29,0.00,,,0.00,WUHU216HW,2013-08-22 01:45:00,
2013-08-21 18:50:00,92.5,55.5,27.30,SW,225,2.5,4.0,29,0.00,,,0.00,WUHU216HW,2013-08-22 01:50:00,
2013-08-21 18:55:00,92.3,56.5,27.30,West,270,1.8,2.9,30,0.00,,,0.00,WUHU216HW,2013-08-22 01:55:00,
2013-08-21 19:00:00,92.2,56.3,27.30,WNW,293,1.3,2.9,30,0.00,,,0.00,WUHU216HW,2013-08-22 02:00:00,
2013-08-21 19:05:00,92.0,56.3,27.31,WSW,248,0.9,2.5,30,0.00,,,0.00,WUHU216HW,2013-08-22 02:05:00,
2013-08-21 19:10:00,91.8,56.1,27.31,SW,225,0.7,1.6,30,0.00,,,0.00,WUHU216HW,2013-08-22 02:10:00,
2013-08-21 19:15:00,91.8,56.1,27.31,WSW,248,1.8,1.8,30,0.00,,,0.00,WUHU216HW,2013-08-22 02:15:00,
2013-08-21 19:20:00,91.6,56.0,27.31,SW,225,1.3,1.8,30,0.00,,,0.00,WUHU216HW,2013-08-22 02:20:00,
2013-08-21 19:25:00,91.4,56.6,27.32,West,270,0.4,1.3,31,0.00,,,0.00,WUHU216HW,2013-08-22 02:25:00,
2013-08-21 19:30:00,91.4,56.6,27.32,SW,225,0.4,1.3,31,0.00,,,0.00,WUHU216HW,2013-08-22 02:30:00,
2013-08-21 19:35:00,91.3,56.4,27.32,West,270,0.0,1.3,31,0.00,,,0.00,WUHU216HW,2013-08-22 02:35:00,
2013-08-21 19:40:00,91.1,56.3,27.32,SW,225,0.4,1.3,31,0.00,,,0.00,WUHU216HW,2013-08-22 02:40:00,
2013-08-21 19:45:00,90.9,56.1,27.32,NNW,338,0.0,1.3,31,0.00,,,0.00,WUHU216HW,2013-08-22 02:45:00,
2013-08-21 19:50:00,90.7,56.0,27.32,WSW,248,0.4,1.1,31,0.00,,,0.00,WUHU216HW,2013-08-22 02:50:00,
2013-08-21 19:55:00,90.4,55.6,27.32,West,270,0.0,0.9,31,0.00,,,0.00,WUHU216HW,2013-08-22 02:55:00,
2013-08-21 20:00:00,90.2,56.3,27.32,SW,225,0.0,0.4,32,0.00,,,0.00,WUHU216HW,2013-08-22 03:00:00,
2013-08-21 20:05:00,90.2,56.3,27.32,NNW,338,0.0,0.4,32,0.00,,,0.00,WUHU216HW,2013-08-22 03:05:00,
2013-08-21 20:10:00,90.0,56.1,27.32,SW,225,0.7,0.7,32,0.00,,,0.00,WUHU216HW,2013-08-22 03:10:00,
2013-08-21 20:15:00,89.6,56.5,27.32,SW,225,0.7,0.9,33,0.00,,,0.00,WUHU216HW,2013-08-22 03:15:00,
2013-08-21 20:16:00,89.6,56.5,27.32,SW,225,0.4,0.4,33,0.00,,,0.00,WUHU216HW,2013-08-22 03:16:00,
2013-08-21 20:20:00,89.6,56.5,27.32,SW,225,0.4,0.9,33,0.00,,,0.00,WUHU216HW,2013-08-22 03:20:00,
2013-08-21 20:25:00,89.6,56.5,27.32,SW,225,0.4,0.4,33,0.00,,,0.00,WUHU216HW,2013-08-22 03:25:00,
2013-08-21 20:46:00,88.4,56.3,27.34,ESE,113,0.0,0.0,34,0.00,,,0.00,WUHU216HW,2013-08-22 03:46:00,
2013-08-21 20:51:00,88.4,56.3,27.34,ESE,113,0.0,0.0,34,0.00,,,0.00,WUHU216HW,2013-08-22 03:51:00,
2013-08-21 20:56:00,88.2,55.3,27.34,ESE,113,0.0,0.0,33,0.00,,,0.00,WUHU216HW,2013-08-22 03:56:00,
2013-08-21 21:01:00,88.0,55.2,27.35,ESE,113,0.0,0.0,33,0.00,,,0.00,WUHU216HW,2013-08-22 04:01:00,
2013-08-21 21:06:00,87.7,55.6,27.35,NE,45,0.0,0.4,34,0.00,,,0.00,WUHU216HW,2013-08-22 04:06:00,
2013-08-21 21:11:00,87.5,55.5,27.35,ENE,68,0.0,0.0,34,0.00,,,0.00,WUHU216HW,2013-08-22 04:11:00,
2013-08-21 21:16:00,87.3,55.4,27.35,SE,135,0.4,0.4,34,0.00,,,0.00,WUHU216HW,2013-08-22 04:16:00,
2013-08-21 21:21:00,87.1,55.2,27.35,SE,135,0.0,0.4,34,0.00,,,0.00,WUHU216HW,2013-08-22 04:21:00,
2013-08-21 21:26:00,87.1,55.2,27.35,SE,135,0.4,0.4,34,0.00,,,0.00,WUHU216HW,2013-08-22 04:26:00,
2013-08-21 21:31:00,86.9,55.1,27.35,SE,135,0.0,0.4,34,0.00,,,0.00,WUHU216HW,2013-08-22 04:31:00,
2013-08-21 21:36:00,86.8,55.7,27.35,SE,135,0.2,1.3,35,0.00,,,0.00,WUHU216HW,2013-08-22 04:36:00,
2013-08-21 21:41:00,86.6,55.5,27.35,SE,135,0.0,1.3,35,0.00,,,0.00,WUHU216HW,2013-08-22 04:41:00,
2013-08-21 21:46:00,86.4,55.4,27.36,SE,135,0.4,0.4,35,0.00,,,0.00,WUHU216HW,2013-08-22 04:46:00,
2013-08-21 21:51:00,86.2,55.3,27.36,SE,135,0.4,0.7,35,0.00,,,0.00,WUHU216HW,2013-08-22 04:51:00,
2013-08-21 21:56:00,86.0,55.1,27.36,ESE,113,0.4,1.1,35,0.00,,,0.00,WUHU216HW,2013-08-22 04:56:00,
2013-08-21 22:01:00,85.9,54.9,27.36,ESE,113,0.2,1.1,35,0.00,,,0.00,WUHU216HW,2013-08-22 05:01:00,
2013-08-21 22:06:00,85.7,54.7,27.37,ESE,113,0.4,0.4,35,0.00,,,0.00,WUHU216HW,2013-08-22 05:06:00,
2013-08-21 22:11:00,85.7,54.7,27.37,ENE,68,0.0,0.4,35,0.00,,,0.00,WUHU216HW,2013-08-22 05:11:00,
2013-08-21 22:16:00,85.7,55.5,27.37,ESE,113,0.0,0.2,36,0.00,,,0.00,WUHU216HW,2013-08-22 05:16:00,
2013-08-21 22:21:00,85.5,55.4,27.37,East,90,0.0,0.2,36,0.00,,,0.00,WUHU216HW,2013-08-22 05:21:00,
2013-08-21 22:26:00,85.5,55.4,27.37,East,90,0.0,0.0,36,0.00,,,0.00,WUHU216HW,2013-08-22 05:26:00,
2013-08-21 22:31:00,85.3,55.3,27.37,East,90,0.0,0.0,36,0.00,,,0.00,WUHU216HW,2013-08-22 05:31:00,
2013-08-21 22:36:00,85.3,56.0,27.37,East,90,0.0,0.0,37,0.00,,,0.00,WUHU216HW,2013-08-22 05:36:00,
2013-08-21 22:41:00,85.3,56.0,27.37,East,90,0.0,0.0,37,0.00,,,0.00,WUHU216HW,2013-08-22 05:41:00,
2013-08-21 22:46:00,85.3,56.0,27.37,SE,135,0.4,0.4,37,0.00,,,0.00,WUHU216HW,2013-08-22 05:46:00,
2013-08-21 22:51:00,85.1,57.4,27.38,ESE,113,0.4,0.9,39,0.00,,,0.00,WUHU216HW,2013-08-22 05:51:00,
2013-08-21 22:56:00,85.0,59.3,27.38,SE,135,0.7,0.9,42,0.00,,,0.00,WUHU216HW,2013-08-22 05:56:00,
2013-08-21 23:01:00,84.6,59.1,27.38,SE,135,0.0,0.7,42,0.00,,,0.00,WUHU216HW,2013-08-22 06:01:00,
2013-08-21 23:06:00,84.2,58.1,27.38,East,90,0.0,0.4,41,0.00,,,0.00,WUHU216HW,2013-08-22 06:06:00,
2013-08-21 23:11:00,84.1,57.9,27.38,East,90,0.0,0.0,41,0.00,,,0.00,WUHU216HW,2013-08-22 06:11:00,
2013-08-21 23:16:00,84.1,57.2,27.38,ESE,113,0.0,0.2,40,0.00,,,0.00,WUHU216HW,2013-08-22 06:16:00,
2013-08-21 23:21:00,84.1,57.2,27.38,ENE,68,0.0,0.2,40,0.00,,,0.00,WUHU216HW,2013-08-22 06:21:00,
2013-08-21 23:26:00,84.1,56.4,27.38,ENE,68,0.0,0.0,39,0.00,,,0.00,WUHU216HW,2013-08-22 06:26:00,
2013-08-21 23:31:00,84.1,56.4,27.38,ENE,68,0.0,0.0,39,0.00,,,0.00,WUHU216HW,2013-08-22 06:31:00,
2013-08-21 23:36:00,84.1,56.4,27.37,ENE,68,0.0,0.0,39,0.00,,,0.00,WUHU216HW,2013-08-22 06:36:00,
2013-08-21 23:41:00,84.1,57.2,27.37,ENE,68,0.0,0.0,40,0.00,,,0.00,WUHU216HW,2013-08-22 06:41:00,
2013-08-21 23:46:00,83.9,57.1,27.37,ENE,68,0.0,0.0,40,0.00,,,0.00,WUHU216HW,2013-08-22 06:46:00,
2013-08-21 23:51:00,83.9,57.1,27.37,North,0,0.0,0.0,40,0.00,,,0.00,WUHU216HW,2013-08-22 06:51:00,
2013-08-21 23:56:00,83.7,57.0,27.37,North,0,0.0,0.0,40,0.00,,,0.00,WUHU216HW,2013-08-22 06:56:00,